星链-30200 (STARLINK-30200 )

导读 | 星芒AI

STARLINK-30200 是 SpaceX Starlink 项目中的一颗低轨通信卫星,属于第三代 Starlink 卫星(也称为 v1.5 或 Block V)。该卫星旨在为全球提供高速互联网服务,支持偏远地区的网络接入。它搭载先进通信设备和激光链路,提升数据传输效率和网络稳定性。STARLINK-30200 于 2023 年发射,是 SpaceX 扩展其卫星互联网星座计划的一部分,有助于实现 Starlink 的全球覆盖目标。

基本信息
目录编号:
57306
目录名称:
STARLINK-30200
国际标识:
2023-096S
轨道中心:
EARTH
卫星名称:
星链-30200
卫星全名:
星链-30200 (STARLINK-30200 )
卫星状态:
在轨 (已飞行892 天)
发射日期:
2023-07-10 UTC
国别 :
美国 (US)
星等 :
--
轨道信息
数据来源 国际轨道数据
星历时间: 2025-12-18T11:07:32+0800
18小时前
查看轨道信息
半长轴: 6792.57km
偏心率: 0.003209
轨道倾角: 42.982°
近地点辐角 192.898°
升交点赤经 263.174°
平近点角 167.107°
近地点: 392.637km
远地点: 436.233km
周期: 92.856分钟
每日圈数: 15.50785
详细信息
固有亮度:
5
最大亮度:
0.3
卫星平台:
Starlink v2.0 mini
覆盖范围:
全球
运营商:
太空探索技术公司
运营商所在国:
美国
制造商(研发单位):
太空探索技术公司
制造商所在国:
美国
使用方式:
暂无
卫星简介
星链(Starlink)计划是由太空探索技术公司(SpaceX)提出的一个巨型低轨卫星互联网星座项目,计划在2019年至2024年间在太空搭建由约1.2万颗卫星组成的“星链”网络,其中1584颗将部署在地球上空550千米处的近地轨道,并从2020年开始工作。该卫星仍在工作。
2D轨道图
3D轨道图
轨道高度分析图
轨道倾角分析图
轨道综合分析图
查看轨道综合分析图